This demonstration page uses our WeatherBlox Daily Observations layout. Learn more.

Left ArrowRight Arrow

Hourly Observations for November 14, 2021

Temp ( °F °C ) Dew Point ( °F °C ) Humidity (%) Winds ( mph kmh ) Pressure ( in mb ) Visibility ( mi km ) Precip ( " mm )
12:56 am 00:56 Cloudy 44 6.7 33 0.6 65 65 NNW 9 15 30.12 1020 10 16 0.00 0.00
1:56 am 01:56 Cloudy 42 5.6 31 -0.6 65 65 NW 10 17 30.13 1020 10 16 0.00 0.00
2:56 am 02:56 Cloudy 42 5.6 30 -1.1 62 62 NW 10 17 30.14 1021 10 16 0.00 0.00
3:56 am 03:56 Cloudy 41 5 31 -0.6 67 67 WNW 8 13 30.14 1021 10 16 0.00 0.00
4:56 am 04:56 Mostly Cloudy 40 4.4 31 -0.6 70 70 WNW 9 15 30.15 1021 10 16 0.00 0.00
5:56 am 05:56 Mostly Cloudy 39 3.9 31 -0.6 73 73 WNW 10 17 30.16 1021 10 16 0.00 0.00
6:56 am 06:56 Cloudy 38 3.3 30 -1.1 73 73 WNW 8 13 30.16 1021 10 16 0.00 0.00
7:56 am 07:56 Sunny 41 5 29 -1.7 62 62 W 9 15 30.16 1021 10 16 0.00 0.00
8:56 am 08:56 Mostly Sunny 44 6.7 30 -1.1 58 58 W 9 15 30.16 1022 10 16 0.00 0.00
9:56 am 09:56 Mostly Cloudy 45 7.2 31 -0.6 58 58 W 9 15 30.16 1021 10 16 0.00 0.00
10:56 am 10:56 Cloudy 48 8.9 31 -0.6 52 52 WSW 9 15 30.15 1021 10 16 0.00 0.00
11:56 am 11:56 Partly Cloudy 50 10 29 -1.7 44 44 WSW 10 17 30.12 1020 10 16 0.00 0.00
12:56 pm 12:56 Mostly Sunny 55 12.8 27 -2.8 34 34 WSW 16 26 30.06 1018 10 16 0.00 0.00
1:56 pm 13:56 Sunny 56 13.3 24 -4.4 29 29 W 17 28 30.04 1017 10 16 0.00 0.00
2:56 pm 14:56 Partly Cloudy 56 13.3 24 -4.4 29 29 WSW 13 20 30.02 1017 10 16 0.00 0.00
3:56 pm 15:56 Cloudy 56 13.3 24 -4.4 29 29 SW 10 17 30.00 1016 10 16 0.00 0.00
4:56 pm 16:56 Mostly Cloudy 54 12.2 25 -3.9 33 33 SW 8 13 29.99 1016 10 16 0.00 0.00
5:56 pm 17:56 Mostly Cloudy 45 7.2 27 -2.8 49 49 SSE 9 15 29.98 1015 10 16 0.00 0.00
6:56 pm 18:56 Cloudy 45 7.2 29 -1.7 54 54 S 9 15 29.97 1015 10 16 0.00 0.00
7:56 pm 19:56 Cloudy 46 7.8 29 -1.7 51 51 S 8 13 29.94 1014 10 16 0.00 0.00
8:56 pm 20:56 Mostly Cloudy 48 8.9 27 -2.8 44 44 SSW 10 17 29.92 1013 10 16 0.00 0.00
9:56 pm 21:56 Cloudy 48 8.9 27 -2.8 44 44 SSW 13 20 29.92 1013 10 16 0.00 0.00
10:56 pm 22:56 Clear 44 6.7 27 -2.8 51 51 SSW 12 19 29.90 1013 10 16 0.00 0.00
11:56 pm 23:56 Clear 43 6.1 27 -2.8 53 53 SW 14 22 29.88 1012 10 16 0.00 0.00

Powered by AerisWeather